Ellensburg, WA

2:06 AM PDT on March 24, 2017 (GMT -0700)
Bowers

Weather History for KELN - December, 2011

Change the Weather History Date:

Monday, December 26, 2011

  Actual Average (KYKM) Record (KYKM)
Temperature  
Mean Temperature 32 °F -  
Max Temperature 37 °F 36 °F 67 °F (1980)
Min Temperature 28 °F 21 °F -5 °F (1988)
Degree Days  
Heating Degree Days 32    
Moisture  
Dew Point 26 °F    
Average Humidity 76    
Maximum Humidity 85    
Minimum Humidity 67    
Precipitation  
Precipitation 0.00 in - - ()
Sea Level Pressure  
Sea Level Pressure 30.28 in    
Wind  
Wind Speed 5 mph (NE)    
Max Wind Speed 10 mph    
Max Gust Speed -    
Visibility 10 miles    
Events      
Averages and records for this station are not official NWS values.
T = Trace of Precipitation, MM = Missing Value Source: NWS Daily Summary

Daily Weather History Graph

Daily Weather History Graph

Search for Another Location

Airport or City:

Trip Planner

Search our weather history database for the weather conditions in past years. The results will help you decide how hot, cold, wet, or windy it might be!

Date:

Astronomy

Dec. 26, 2011 Rise Set
Actual Time 7:47 AM PST 4:18 PM PST
Civil Twilight 7:11 AM PST 4:53 PM PST
Nautical Twilight 6:32 AM PST 5:32 PM PST
Astronomical Twilight 5:55 AM PST 6:09 PM PST
Moon 9:03 AM PST (12/26) 7:00 PM PST (12/26)
Length of Visible Light 9h 42m
Length of Day
8h 31m
Waxing Crescent, 5% of the Moon is Illuminated
Dec 26
Waxing Crescent
Dec 31
First Quarter
Jan 8
Full
Jan 16
Last Quarter
Jan 22
New

Hourly Weather History & Observations

Time (PST) Temp. Windchill Dew Point Humidity Pressure Visibility Wind Dir Wind Speed Gust Speed Precip Events Conditions
12:53 AM 36.0 °F 28.5 °F 26.1 °F 67% 30.32 in 10.0 mi WNW 10.4 mph - N/A   Mostly Cloudy
1:53 AM 30.0 °F 26.5 °F 23.0 °F 75% 30.33 in 10.0 mi North 3.5 mph - N/A   Clear
2:53 AM 28.0 °F 24.2 °F 21.9 °F 78% 30.33 in 10.0 mi NW 3.5 mph - N/A   Clear
3:53 AM 30.9 °F 26.2 °F 24.1 °F 76% 30.34 in 10.0 mi NNW 4.6 mph - N/A   Clear
4:53 AM 30.0 °F 26.5 °F 24.1 °F 79% 30.34 in 10.0 mi NNW 3.5 mph - N/A   Overcast
5:53 AM 35.1 °F 27.4 °F 27.0 °F 72% 30.34 in 10.0 mi NNW 10.4 mph - N/A   Overcast
6:53 AM 30.0 °F 25.2 °F 24.1 °F 79% 30.33 in 10.0 mi ESE 4.6 mph - N/A   Overcast
7:53 AM 32.0 °F - 24.1 °F 73% 30.32 in 10.0 mi Calm Calm - N/A   Overcast
8:53 AM 33.1 °F 28.7 °F 25.0 °F 72% 30.32 in 10.0 mi East 4.6 mph - N/A   Overcast
9:53 AM 36.0 °F - 27.0 °F 70% 30.31 in 10.0 mi Calm Calm - N/A   Mostly Cloudy
10:53 AM 35.1 °F 30.1 °F 27.0 °F 72% 30.31 in 10.0 mi South 5.8 mph - N/A   Overcast
11:53 AM 37.0 °F 34.5 °F 27.0 °F 67% 30.28 in 10.0 mi NE 3.5 mph - N/A   Overcast
12:53 PM 37.9 °F 33.5 °F 28.0 °F 68% 30.25 in 10.0 mi ENE 5.8 mph - N/A   Partly Cloudy
1:53 PM 37.9 °F - 28.0 °F 68% 30.24 in 10.0 mi Calm Calm - N/A   Mostly Cloudy
2:53 PM 35.1 °F - 28.0 °F 76% 30.24 in 10.0 mi Calm Calm - N/A   Overcast
3:53 PM 35.1 °F - 28.9 °F 78% 30.24 in 10.0 mi Calm Calm - N/A   Overcast
4:53 PM 35.1 °F - 28.0 °F 76% 30.23 in 10.0 mi Calm Calm - N/A   Overcast
5:53 PM 34.0 °F 29.8 °F 28.9 °F 82% 30.22 in 10.0 mi East 4.6 mph - N/A   Overcast
6:53 PM 33.1 °F 30.0 °F 28.0 °F 82% 30.22 in 10.0 mi East 3.5 mph - N/A   Scattered Clouds
7:53 PM 30.9 °F 26.2 °F 26.1 °F 82% 30.23 in 10.0 mi NE 4.6 mph - N/A   Clear
9:53 PM 33.1 °F - 27.0 °F 78% 30.22 in 10.0 mi Calm Calm - N/A   Scattered Clouds
10:53 PM 30.0 °F - 26.1 °F 85% 30.22 in 10.0 mi Calm Calm - N/A   Scattered Clouds
11:53 PM 30.0 °F 25.2 °F 25.0 °F 82% 30.21 in 10.0 mi East 4.6 mph - N/A   Partly Cloudy